STARLINK-11313, 61255

Orbit data source: Space-Track

STARLINK-11313, 61255 is a payload satellite owned by SpaceX/Seattle (US) in LEO that was launched on Wed, 25 Sep 2024 UTC via an FALCON 9 launch vehicle from the Air Force Western Test Range (AFWTR). Payload-class satellites include a variety of spacecraft equipped with specific instruments for various scientific and technological missions. These include communications satellites like Starlink; space stations such as the ISS; scientific satellites like the Hubble; Earth observation satellites from companies like Planet Labs, Umbra, and HawkEye 360; GPS; miniature CubeSats for education and research; and military/defense satellites.

Loading next visibility...
Identifier
61255, 2024-175N
Orbit
LEO
Country
Flag of USUS
Related business
Manufacturer
SpaceX/Seattle
Mission
Operational Commercial Communications
Bus & Motor
STARLINK V2MD, Unknown motor
Mass
960 kg wet, ~910 kg dry
Launch date (UTC)
2024-09-25 (1 year ago)
Launch vehicle
FALCON 9
Launch site
Air Force Western Test Range (AFWTR)
Object type
Payload
Rocket body
Debris
Shape & HBR
Box + 2 Pan, 18.1 m
Radar Cross Section
36.964 m², Large (>1 m²)

Expand to show TLE details & history
Last TLE update: 10 hours ago

TLE from 10 hours ago
0 STARLINK-11313
1 61255U 24175N   25311.24252931 -.00007429  00000-0 -56580-4 0  9990
2 61255  53.1593 299.9623 0001373  85.3793 274.7381 15.69679313 64132
Epoch: 2025-11-07T05:49Z
TLE epoch observation values (Epoch: 2025-11-07T05:49:14.532Z)
Latitude
-0.00007°
Longitude
165.9624°
Altitude
360.653 km
Speed
7.694 km/s
True Right ascension
19h 59m 50s
True Declination
0° 00' 00"
Sunlit
Object was in daylight at epoch
Visualization orbit readout
Latitude
Unknown
Longitude
Unknown
Altitude
Unknown
Speed
Unknown
Apparent Right ascension
Unknown
Apparent Declination
Unknown
Sunlit
N/A
Visualization observer readout
Local Sidereal Time
12:12:25
Azimuth
Unknown
Elevation
Unknown
Doppler factor
Unknown
Orbital elements
Apogee altitude
361.001 km
Perigee altitude
359.15 km
Semi-major axis
6,738.212 km
Eccentricity
0.00014
Inclination
53.1593°
RAAN
299.9623°
Arg. of periapsis
85.3793°
True anomaly
274.72242°
Mean anomaly
274.7381°
Eccentric anomaly
274.73026°
Mean motion
3.92397 °/min
Orbital period
91.74 mins
BSTAR
-0.00005658
Loading maneuver chart data...
Computing Atmospheric mass density...
Loading historical data...
Loading historical data...
Loading historical data...
Loading historical data...
Loading historical data...
Loading historical data...
Loading historical data...

Documentation

Showing up to 5 results
|